Back to catalog

STARLINK-30875

AliveCommunicationsVLEO
NORAD 58224·PAYLOAD·🇺🇸 United States

Launched Nov 3, 2023 from Cape Canaveral Space Force Station

Loading…

Next Passes (next 24 hours)

TLE

FreshSource: CelesTrak SupGP

Epoch: Sep 14, 2026, 21:54 UTC

1 58224C 23170U   26257.91298611  .00009450  00000+0  34228-3 0  2579
2 58224  43.0007 205.3817 0001355 259.5172   5.0200 15.27572907    11

Track STARLINK-30875 in real time with AllMySat

Download on the App Store